UNISAT-6

Last updated on Mon Nov 03 2025 00:03:21 GMT+0000 (Coordinated Universal Time)

1 40012U 14033C 25306.42852197 .00003943 00000+0 44381-3 0 9993 2 40012 97.7594 98.8194 0047844 95.5149 265.1527 14.86390370612456
UTC large
Height (km)
Speed (km/s)
/
Latitude / Longitude
Inclination (degrees)
Orbital Period (minutes)
Azimuth
Elevation
Range (km)
Doppler Factor

Next 0 passes for location: London (51.5072 / 0.1276)

Sorry there are no passes over London.